This is the latest recevied weather packets stored in our database for station/object KG7BDA. If no packets are shown the sender has not sent any weather packets the latest 10 day(s).
| Time | Temp. | Humidity | Pressure | Rain* | Wind** | Luminosity | Snow |
|---|---|---|---|---|---|---|---|
| 1777634831 | 8.33° C | 69% | 1019.8 hPa | 0 mm | - | - | - |
| 1777634471 | 8.33° C | 69% | 1019.9 hPa | 0 mm | - | - | - |
| 1777634111 | 8.89° C | 68% | 1019.9 hPa | 0 mm | - | - | - |
| 1777633751 | 8.89° C | 68% | 1019.9 hPa | 0 mm | - | - | - |
| 1777633390 | 8.89° C | 70% | 1019.9 hPa | 0 mm | - | - | - |
| 1777633030 | 8.89° C | 70% | 1019.8 hPa | 0 mm | - | - | - |
| 1777632670 | 8.89° C | 70% | 1019.7 hPa | 0 mm | - | - | - |
| 1777632310 | 8.33° C | 71% | 1019.8 hPa | 0 mm | - | - | - |
| 1777631950 | 8.33° C | 72% | 1019.7 hPa | 0 mm | - | - | - |
| 1777631589 | 8.33° C | 73% | 1019.8 hPa | 0 mm | - | - | - |
| 1777631230 | 8.33° C | 74% | 1019.8 hPa | 0 mm | - | - | - |
| 1777630871 | 8.33° C | 75% | 1019.8 hPa | 0 mm | - | - | - |
| 1777630511 | 7.78° C | 77% | 1019.8 hPa | 0 mm | - | - | - |
| 1777630150 | 7.78° C | 78% | 1019.7 hPa | 0 mm | - | - | - |
| 1777629791 | 7.22° C | 79% | 1019.6 hPa | 0 mm | - | - | - |
| 1777629430 | 6.67° C | 80% | 1019.5 hPa | 0 mm | - | - | - |
| 1777629070 | 6.67° C | 79% | 1019.5 hPa | 0 mm | - | - | - |
| 1777628710 | 6.11° C | 79% | 1019.4 hPa | 0 mm | - | - | - |
| 1777628350 | 6.11° C | 80% | 1020.4 hPa | 0 mm | - | - | - |
| 1777627990 | 6.11° C | 79% | 1020.3 hPa | 0 mm | - | - | - |
| 1777627629 | 6.67° C | 78% | 1020.3 hPa | 0 mm | - | - | - |
| 1777627270 | 6.11° C | 80% | 1020.4 hPa | 0 mm | - | - | - |
| 1777626910 | 6.11° C | 79% | 1020.5 hPa | 0 mm | - | - | - |
| 1777626550 | 6.11° C | 79% | 1020.5 hPa | 0 mm | - | - | - |
| 1777626191 | 6.11° C | 79% | 1020.5 hPa | 0 mm | - | - | - |
* Rain latest hour (hover to see other rain measurements)
** Current wind speed in m/s (hover to see current wind gust speed)